Regional Weather Roundup
Issued by NWS

Home | Current Version | Previous Version | Graphics & Text | Print | Product List | Glossary On
Versions: 1 2 3 4 5 6 7 8 9 10 11 12 13 14 15 16 17 18 19 20 21 22 23 24 25 26 27 28 29 30 31 32 33 34 35 36 37 38 39 40 41 42 43 44 45 46 47 48 49 50
000
ASUS43 KLMK 312102
RWRKY
KENTUCKY REGIONAL WEATHER ROUNDUP
NATIONAL WEATHER SERVICE LOUISVILLE KY
500 PM EDT TUE MAY 31 2016

NOTE "FAIR" INDICATES FEW OR NO CLOUDS BELOW 12,000 FEET
WITH NO SIGNIFICANT WEATHER AND/OR OBSTRUCTIONS TO VISIBILITY.

KYZ001>023-026-027-061>063-070>075-312200-
WESTERN AND SOUTH CENTRAL KENTUCKY

CITY           SKY/WX    TMP DP  RH WIND       PRES   REMARKS
PADUCAH        CLOUDY    85  60  42 CALM      29.90F
HENDERSON      CLOUDY    88  59  37 S3        29.91S
OWENSBORO      MOSUNNY   87  62  42 SE13      29.93F
HOPKINSVILLE   NOT AVBL
BOWLING GREEN  PTSUNNY   86  61  42 VRB5      29.93F
GLASGOW        NOT AVBL
$$

KYZ024-025-028>034-038-045-046-053-312200-
NORTH CENTRAL KENTUCKY

CITY           SKY/WX    TMP DP  RH WIND       PRES   REMARKS
LOUISVILLE/SDF CLOUDY    86  58  38 SE8       29.94F
LOUISVILLE/LOU CLOUDY    85  58  39 VRB7      29.95F
FORT KNOX      NOT AVBL
$$

KYZ035>037-039>044-047>052-055>060-089>105-312200-
NORTHEAST KENTUCKY

CITY           SKY/WX    TMP DP  RH WIND       PRES   REMARKS
LEXINGTON      CLOUDY    83  57  41 NE7       29.97F
COVINGTON      PTSUNNY   86  61  42 W7        29.96F
FRANKFORT      CLOUDY    85  56  37 E8        29.95F
$$

KYZ054-064>069-076>088-106>120-312200-
SOUTHEAST KENTUCKY

CITY           SKY/WX    TMP DP  RH WIND       PRES   REMARKS
JACKSON        SUNNY     84  58  40 VRB3      29.98F
LONDON         PTSUNNY   85  59  41 N6        29.96F
SOMERSET       NOT AVBL
MIDDLESBORO    MOSUNNY   85  63  46 N5        29.94F
MONTICELLO     CLOUDY    82  65  56 N16       29.97F
$$




USA.gov is the U.S. government's official web portal to all federal, state and local government web resources and services.